Location: Apeadero de Los Molinos-Guadarrama
(40.7091°N, 4.0689°W)
Time: 14:48:20
(UTC+00:00)

ISS - Pass Details

Date: 26 September 2021
Orbit: 417 x 423 km, 51.6° (Epoch: 28 October)

Event Time Altitude Azimuth Distance (km) Brightness Sun altitude
Rises 20:32:40 0° 311° (NW) 2,367 1.2 -27.8°
Reaches altitude 10° 20:35:14 10° 331° (NNW) 1,503 -0.3 -28.3°
Enters shadow 20:35:48 13° 338° (NNW) 1,350 -0.7 -28.4°
